sat.trackr.live / text

‹ back to catalog

YAOGAN-25 01B

NORAD 40339 · 2014-080B

PAYLOAD ACTIVE UNKNOWN

§ Identity

Operator
Country
PRC
Launch date
2014-12-10
Launch site
JSC
Launch vehicle
Mass (kg)
RCS (m²)
2.39

External: N2YO · Heavens-Above · Gunter

§ Orbital elements

Epoch: 2026-05-25T03:41:56.859648Z

Period
107.03 min
Inclination
63.3904°
Eccentricity
0.0364890
Mean motion
13.45432652 rev/d
Perigee alt
816.6 km
Apogee alt
1,361.6 km
Semi-major
7,467.2 km
B*
-1.1489e-4
RAAN
10.2537°
Arg perigee
8.8561°
Mean anomaly
351.8673°
Rev number
56,253

§ Raw data

YAOGAN-25 01B1 40339U 14080B   26145.15413032 -.00000193  00000+0 -11489-3 0  99992 40339  63.3904  10.2537 0364890   8.8561 351.8673 13.45432652562531

JSON: /api/v1/satellites/40339 · /tle

For live sub-satellite position, see the globe view (requires WebGL).

§ Visibility from observer

Set your observer location to see the next 7 days of passes ≥ 10°. The values pass through the URL so the page stays shareable.

No JS? Fill the form by hand. The geolocation button needs JavaScript.